{"data":{"norad_id":66748,"intl_designator":"2025-276CL","name":"UMBRA-11","alt_names":[],"object_type":"PAYLOAD","status":"ACTIVE","operator":null,"country":"US","launch_date":"2025-11-28","launch_site_code":"AFWTR","launch_vehicle":null,"mission":null,"orbit_class":"UNKNOWN","rcs_meters":null,"size_class":null,"mass_kg":null,"dimensions":null,"purposes":[],"wikipedia_slug":null,"has_3d_model":false,"image_url":null,"decayed_at":null,"tle_current":{"epoch":"2026-09-20T15:21:35.228448Z","epoch_age_seconds":105432,"freshness":"FRESH","line1":"1 66748U 25276CL  26263.63999107  .00015816  00000+0  54247-3 0  9991","line2":"2 66748  97.4119 337.8828 0001595  24.1827 335.9488 15.30250822 45071","mean_motion":15.30250822,"eccentricity":0.0001595,"inclination_deg":97.4119,"raan_deg":337.8828,"arg_perigee_deg":24.1827,"mean_anomaly_deg":335.9488,"bstar":0.00054247,"rev_number":4507,"period_min":94.102220322153,"perigee_km":473.97024283545,"apogee_km":476.15641374018,"semimajor_km":6853.2003282878,"source":"CELESTRAK","updated_at":"2026-09-21T09:00:16.177698Z"}}}